Time,TemperatureF,DewpointF,PressureIn,WindDirection,WindDirectionDegrees,WindSpeedMPH,WindSpeedGustMPH,Humidity,HourlyPrecipIn,Conditions,Clouds,dailyrainin,SoftwareType,DateUTC
2013-06-08 00:01:00,55.5,48.8,29.79,East,82,1.0,2.0,78,0.00,,,0.00,Wunderground v.1.15,2013-06-08 04:01:00,
2013-06-08 00:02:00,55.5,48.8,29.79,ENE,59,1.0,5.0,78,0.00,,,0.00,Wunderground v.1.15,2013-06-08 04:02:00,
2013-06-08 00:03:00,55.5,48.8,29.79,ENE,58,1.0,5.0,78,0.00,,,0.00,Wunderground v.1.15,2013-06-08 04:03:00,
2013-06-08 00:05:00,55.5,48.8,29.79,ENE,58,1.0,5.0,78,0.00,,,0.00,Wunderground v.1.15,2013-06-08 04:05:00,
2013-06-08 00:11:00,55.4,48.7,29.79,NE,54,1.0,1.0,78,0.00,,,0.00,Wunderground v.1.15,2013-06-08 04:11:00,
2013-06-08 00:12:00,55.4,48.7,29.79,NE,54,1.0,1.0,78,0.00,,,0.00,Wunderground v.1.15,2013-06-08 04:12:00,
2013-06-08 00:17:00,55.4,48.7,29.79,NE,54,0.0,2.0,78,0.00,,,0.00,Wunderground v.1.15,2013-06-08 04:17:00,
2013-06-08 00:23:00,55.4,48.7,29.79,NE,54,0.0,0.0,78,0.00,,,0.00,Wunderground v.1.15,2013-06-08 04:23:00,
2013-06-08 00:29:00,55.4,48.7,29.80,NE,54,0.0,0.0,78,0.00,,,0.00,Wunderground v.1.15,2013-06-08 04:29:00,
2013-06-08 00:35:00,55.4,48.7,29.79,NE,54,0.0,0.0,78,0.00,,,0.00,Wunderground v.1.15,2013-06-08 04:35:00,
2013-06-08 00:40:00,55.4,48.7,29.79,NE,54,0.0,0.0,78,0.00,,,0.00,Wunderground v.1.15,2013-06-08 04:40:00,
2013-06-08 00:45:00,55.4,48.7,29.79,NE,54,0.0,0.0,78,0.00,,,0.00,Wunderground v.1.15,2013-06-08 04:45:00,
2013-06-08 00:51:00,55.4,48.7,29.79,NE,54,0.0,0.0,78,0.00,,,0.00,Wunderground v.1.15,2013-06-08 04:51:00,
2013-06-08 00:57:00,55.4,48.7,29.79,NE,54,0.0,0.0,78,0.00,,,0.00,Wunderground v.1.15,2013-06-08 04:57:00,
2013-06-08 01:03:00,55.4,48.7,29.79,NE,54,0.0,0.0,78,0.00,,,0.00,Wunderground v.1.15,2013-06-08 05:03:00,
2013-06-08 01:08:00,55.4,48.7,29.79,NE,54,0.0,0.0,78,0.00,,,0.00,Wunderground v.1.15,2013-06-08 05:08:00,
2013-06-08 01:13:00,55.4,48.7,29.79,NE,54,0.0,0.0,78,0.00,,,0.00,Wunderground v.1.15,2013-06-08 05:13:00,
2013-06-08 01:19:00,55.4,48.7,29.79,NE,54,0.0,0.0,78,0.00,,,0.00,Wunderground v.1.15,2013-06-08 05:19:00,
2013-06-08 01:25:00,55.3,48.6,29.79,NE,54,0.0,0.0,78,0.00,,,0.00,Wunderground v.1.15,2013-06-08 05:25:00,
2013-06-08 01:31:00,55.3,48.6,29.78,NE,54,0.0,0.0,78,0.00,,,0.00,Wunderground v.1.15,2013-06-08 05:31:00,
2013-06-08 01:36:00,55.3,48.6,29.78,NE,54,0.0,0.0,78,0.00,,,0.00,Wunderground v.1.15,2013-06-08 05:36:00,
2013-06-08 01:41:00,55.3,48.6,29.78,NE,54,0.0,0.0,78,0.00,,,0.01,Wunderground v.1.15,2013-06-08 05:41:00,
2013-06-08 01:47:00,55.3,48.6,29.78,NE,54,0.0,0.0,78,0.00,,,0.01,Wunderground v.1.15,2013-06-08 05:47:00,
2013-06-08 01:52:00,55.3,48.6,29.78,NE,54,0.0,0.0,78,0.00,,,0.01,Wunderground v.1.15,2013-06-08 05:52:00,
2013-06-08 01:58:00,55.3,48.6,29.78,NE,54,0.0,0.0,78,0.00,,,0.01,Wunderground v.1.15,2013-06-08 05:58:00,
2013-06-08 02:04:00,55.3,48.6,29.78,NE,54,0.0,0.0,78,0.00,,,0.01,Wunderground v.1.15,2013-06-08 06:04:00,
2013-06-08 02:09:00,55.3,48.6,29.77,NE,54,0.0,0.0,78,0.00,,,0.01,Wunderground v.1.15,2013-06-08 06:09:00,
2013-06-08 02:15:00,55.3,48.6,29.77,NE,54,0.0,0.0,78,0.00,,,0.01,Wunderground v.1.15,2013-06-08 06:15:00,
2013-06-08 02:20:00,55.3,48.2,29.77,NE,54,0.0,0.0,77,0.00,,,0.01,Wunderground v.1.15,2013-06-08 06:20:00,
2013-06-08 02:26:00,55.3,48.2,29.77,NE,54,0.0,0.0,77,0.00,,,0.01,Wunderground v.1.15,2013-06-08 06:26:00,
2013-06-08 02:32:00,55.3,48.2,29.77,NE,54,0.0,0.0,77,0.00,,,0.01,Wunderground v.1.15,2013-06-08 06:32:00,
2013-06-08 02:38:00,55.3,48.2,29.77,NE,54,0.0,0.0,77,0.00,,,0.01,Wunderground v.1.15,2013-06-08 06:38:00,
2013-06-08 02:43:00,55.3,48.2,29.77,NE,54,0.0,0.0,77,0.00,,,0.01,Wunderground v.1.15,2013-06-08 06:43:00,
2013-06-08 02:49:00,55.3,48.2,29.77,NE,54,0.0,0.0,77,0.00,,,0.01,Wunderground v.1.15,2013-06-08 06:49:00,
2013-06-08 02:55:00,55.3,48.2,29.77,NE,54,0.0,0.0,77,0.00,,,0.01,Wunderground v.1.15,2013-06-08 06:55:00,
2013-06-08 03:01:00,55.3,48.2,29.77,NE,54,0.0,0.0,77,0.00,,,0.01,Wunderground v.1.15,2013-06-08 07:01:00,
2013-06-08 03:06:00,55.3,48.2,29.77,NE,54,0.0,0.0,77,0.00,,,0.01,Wunderground v.1.15,2013-06-08 07:06:00,
2013-06-08 03:11:00,55.3,48.2,29.77,NE,54,0.0,0.0,77,0.00,,,0.01,Wunderground v.1.15,2013-06-08 07:11:00,
2013-06-08 03:17:00,55.3,48.2,29.77,NE,54,0.0,0.0,77,0.00,,,0.01,Wunderground v.1.15,2013-06-08 07:17:00,
2013-06-08 03:23:00,55.3,48.2,29.77,NE,54,0.0,0.0,77,0.00,,,0.01,Wunderground v.1.15,2013-06-08 07:23:00,
2013-06-08 03:29:00,55.2,48.1,29.77,NE,54,0.0,0.0,77,0.00,,,0.01,Wunderground v.1.15,2013-06-08 07:29:00,
2013-06-08 03:35:00,55.3,47.9,29.77,NE,54,0.0,0.0,76,0.00,,,0.01,Wunderground v.1.15,2013-06-08 07:35:00,
2013-06-08 03:40:00,55.3,47.9,29.77,NE,54,0.0,0.0,76,0.00,,,0.01,Wunderground v.1.15,2013-06-08 07:40:00,
2013-06-08 03:45:00,55.3,47.9,29.77,NE,54,0.0,0.0,76,0.00,,,0.01,Wunderground v.1.15,2013-06-08 07:45:00,
2013-06-08 03:50:00,55.3,47.9,29.77,NE,54,0.0,0.0,76,0.00,,,0.01,Wunderground v.1.15,2013-06-08 07:50:00,
2013-06-08 03:56:00,55.3,47.9,29.77,NE,54,0.0,0.0,76,0.00,,,0.01,Wunderground v.1.15,2013-06-08 07:56:00,
2013-06-08 04:01:00,55.3,47.9,29.77,NE,54,0.0,0.0,76,0.00,,,0.01,Wunderground v.1.15,2013-06-08 08:01:00,
2013-06-08 04:07:00,55.3,47.9,29.77,NE,54,0.0,0.0,76,0.00,,,0.01,Wunderground v.1.15,2013-06-08 08:07:00,
2013-06-08 04:12:00,55.3,47.9,29.77,NE,54,0.0,0.0,76,0.00,,,0.01,Wunderground v.1.15,2013-06-08 08:12:00,
2013-06-08 04:18:00,55.3,47.9,29.77,NE,54,0.0,0.0,76,0.00,,,0.01,Wunderground v.1.15,2013-06-08 08:18:00,
2013-06-08 04:23:00,55.3,47.9,29.77,NE,54,0.0,0.0,76,0.00,,,0.01,Wunderground v.1.15,2013-06-08 08:23:00,
2013-06-08 04:29:00,55.3,47.9,29.77,NE,54,0.0,0.0,76,0.00,,,0.01,Wunderground v.1.15,2013-06-08 08:29:00,
2013-06-08 04:35:00,55.3,47.9,29.77,NE,54,0.0,0.0,76,0.00,,,0.01,Wunderground v.1.15,2013-06-08 08:35:00,
2013-06-08 04:41:00,55.2,47.8,29.77,NE,54,0.0,0.0,76,0.00,,,0.01,Wunderground v.1.15,2013-06-08 08:41:00,
2013-06-08 04:47:00,55.2,47.8,29.77,NE,54,0.0,0.0,76,0.00,,,0.01,Wunderground v.1.15,2013-06-08 08:47:00,
2013-06-08 04:52:00,55.2,47.8,29.77,NE,54,0.0,0.0,76,0.00,,,0.01,Wunderground v.1.15,2013-06-08 08:52:00,
2013-06-08 04:58:00,55.2,47.8,29.77,NE,54,0.0,0.0,76,0.00,,,0.01,Wunderground v.1.15,2013-06-08 08:58:00,
2013-06-08 05:03:00,55.2,47.8,29.78,NE,54,0.0,0.0,76,0.00,,,0.01,Wunderground v.1.15,2013-06-08 09:03:00,
2013-06-08 05:08:00,55.2,47.8,29.77,NE,54,0.0,0.0,76,0.00,,,0.01,Wunderground v.1.15,2013-06-08 09:08:00,
2013-06-08 05:14:00,55.2,47.8,29.78,NE,54,0.0,0.0,76,0.00,,,0.01,Wunderground v.1.15,2013-06-08 09:14:00,
2013-06-08 05:19:00,55.3,47.9,29.78,NE,54,0.0,0.0,76,0.00,,,0.02,Wunderground v.1.15,2013-06-08 09:19:00,
2013-06-08 05:25:00,55.3,47.9,29.78,NE,54,0.0,0.0,76,0.00,,,0.02,Wunderground v.1.15,2013-06-08 09:25:00,
2013-06-08 05:30:00,55.3,47.9,29.78,NE,54,0.0,0.0,76,0.00,,,0.02,Wunderground v.1.15,2013-06-08 09:30:00,
2013-06-08 05:36:00,55.3,47.9,29.79,NE,54,0.0,1.0,76,0.00,,,0.02,Wunderground v.1.15,2013-06-08 09:36:00,
2013-06-08 05:41:00,55.4,48.0,29.79,NE,54,0.0,0.0,76,0.00,,,0.02,Wunderground v.1.15,2013-06-08 09:41:00,
2013-06-08 05:46:00,55.4,48.0,29.79,NE,52,0.0,2.0,76,0.00,,,0.02,Wunderground v.1.15,2013-06-08 09:46:00,
2013-06-08 05:52:00,55.4,48.0,29.80,NE,52,0.0,0.0,76,0.00,,,0.02,Wunderground v.1.15,2013-06-08 09:52:00,
2013-06-08 05:58:00,55.4,48.0,29.80,NE,52,0.0,1.0,76,0.00,,,0.02,Wunderground v.1.15,2013-06-08 09:58:00,
2013-06-08 06:04:00,55.4,48.0,29.80,NE,52,0.0,1.0,76,0.00,,,0.02,Wunderground v.1.15,2013-06-08 10:04:00,
2013-06-08 06:10:00,55.5,48.1,29.81,NE,52,0.0,0.0,76,0.00,,,0.02,Wunderground v.1.15,2013-06-08 10:10:00,
2013-06-08 06:16:00,55.5,48.1,29.81,NE,52,0.0,0.0,76,0.00,,,0.02,Wunderground v.1.15,2013-06-08 10:16:00,
2013-06-08 06:21:00,55.6,48.2,29.80,NE,52,0.0,0.0,76,0.00,,,0.02,Wunderground v.1.15,2013-06-08 10:21:00,
2013-06-08 06:27:00,55.8,48.0,29.81,NE,52,0.0,0.0,75,0.00,,,0.02,Wunderground v.1.15,2013-06-08 10:27:00,
2013-06-08 11:01:00,59.6,53.8,29.89,West,268,5.0,7.0,81,0.00,,,0.02,Wunderground v.1.15,2013-06-08 15:01:00,
2013-06-08 11:06:00,60.0,54.2,29.89,West,281,4.0,7.0,81,0.00,,,0.02,Wunderground v.1.15,2013-06-08 15:06:00,
2013-06-08 11:12:00,60.2,54.7,29.89,WNW,288,4.0,4.0,82,0.00,,,0.02,Wunderground v.1.15,2013-06-08 15:12:00,
2013-06-08 11:17:00,60.2,54.7,29.89,West,270,4.0,5.0,82,0.00,,,0.02,Wunderground v.1.15,2013-06-08 15:17:00,
2013-06-08 11:23:00,60.3,54.8,29.89,NW,306,3.0,4.0,82,0.00,,,0.02,Wunderground v.1.15,2013-06-08 15:23:00,
2013-06-08 11:29:00,60.3,54.8,29.89,West,276,2.0,4.0,82,0.00,,,0.02,Wunderground v.1.15,2013-06-08 15:29:00,
2013-06-08 11:34:00,60.4,54.9,29.90,WNW,284,1.0,4.0,82,0.00,,,0.02,Wunderground v.1.15,2013-06-08 15:34:00,
2013-06-08 11:40:00,60.7,55.2,29.90,NW,308,2.0,3.0,82,0.00,,,0.02,Wunderground v.1.15,2013-06-08 15:40:00,
2013-06-08 11:45:00,61.0,55.5,29.90,WNW,298,2.0,4.0,82,0.00,,,0.02,Wunderground v.1.15,2013-06-08 15:45:00,
2013-06-08 11:50:00,61.0,55.5,29.90,NNW,331,2.0,2.0,82,0.00,,,0.02,Wunderground v.1.15,2013-06-08 15:50:00,
2013-06-08 11:55:00,61.3,55.8,29.91,NNW,331,1.0,3.0,82,0.00,,,0.02,Wunderground v.1.15,2013-06-08 15:55:00,
2013-06-08 12:01:00,61.4,55.9,29.91,West,271,1.0,3.0,82,0.00,,,0.02,Wunderground v.1.15,2013-06-08 16:01:00,
2013-06-08 12:07:00,61.4,55.9,29.91,WNW,287,2.0,5.0,82,0.00,,,0.02,Wunderground v.1.15,2013-06-08 16:07:00,
2013-06-08 12:12:00,61.3,55.4,29.91,West,273,3.0,4.0,81,0.00,,,0.02,Wunderground v.1.15,2013-06-08 16:12:00,
2013-06-08 12:17:00,61.4,55.9,29.92,West,273,2.0,4.0,82,0.00,,,0.02,Wunderground v.1.15,2013-06-08 16:17:00,
2013-06-08 12:23:00,61.4,55.9,29.92,WSW,253,2.0,6.0,82,0.00,,,0.02,Wunderground v.1.15,2013-06-08 16:23:00,
2013-06-08 12:28:00,61.3,55.4,29.92,West,275,4.0,6.0,81,0.00,,,0.02,Wunderground v.1.15,2013-06-08 16:28:00,
2013-06-08 12:33:00,61.1,55.6,29.92,WSW,251,4.0,7.0,82,0.00,,,0.02,Wunderground v.1.15,2013-06-08 16:33:00,
2013-06-08 12:39:00,61.0,55.5,29.92,West,278,4.0,7.0,82,0.00,,,0.02,Wunderground v.1.15,2013-06-08 16:39:00,
2013-06-08 12:44:00,61.0,55.5,29.92,West,281,4.0,5.0,82,0.00,,,0.02,Wunderground v.1.15,2013-06-08 16:44:00,
2013-06-08 12:50:00,61.0,55.5,29.93,West,271,3.0,3.0,82,0.00,,,0.02,Wunderground v.1.15,2013-06-08 16:50:00,
2013-06-08 12:55:00,61.0,55.5,29.92,WNW,288,3.0,6.0,82,0.00,,,0.02,Wunderground v.1.15,2013-06-08 16:55:00,
2013-06-08 13:01:00,60.9,55.4,29.93,WSW,253,4.0,4.0,82,0.00,,,0.03,Wunderground v.1.15,2013-06-08 17:01:00,
2013-06-08 13:07:00,60.9,55.4,29.93,West,266,3.0,7.0,82,0.00,,,0.03,Wunderground v.1.15,2013-06-08 17:07:00,
2013-06-08 13:12:00,60.9,55.4,29.93,NNW,329,3.0,3.0,82,0.00,,,0.03,Wunderground v.1.15,2013-06-08 17:12:00,
2013-06-08 13:17:00,60.8,55.3,29.93,West,273,3.0,5.0,82,0.00,,,0.03,Wunderground v.1.15,2013-06-08 17:17:00,
2013-06-08 13:23:00,60.7,55.2,29.93,West,270,4.0,7.0,82,0.00,,,0.03,Wunderground v.1.15,2013-06-08 17:23:00,
2013-06-08 13:28:00,60.8,55.3,29.93,WNW,285,4.0,7.0,82,0.00,,,0.03,Wunderground v.1.15,2013-06-08 17:28:00,
2013-06-08 13:33:00,60.8,55.3,29.93,West,277,4.0,4.0,82,0.00,,,0.03,Wunderground v.1.15,2013-06-08 17:33:00,
2013-06-08 13:39:00,60.8,55.3,29.93,West,265,4.0,7.0,82,0.00,,,0.03,Wunderground v.1.15,2013-06-08 17:39:00,
2013-06-08 13:44:00,60.9,55.4,29.93,West,270,3.0,4.0,82,0.00,,,0.03,Wunderground v.1.15,2013-06-08 17:44:00,
2013-06-08 13:49:00,60.9,55.4,29.93,West,271,2.0,3.0,82,0.00,,,0.03,Wunderground v.1.15,2013-06-08 17:49:00,
2013-06-08 13:55:00,61.0,55.5,29.94,WNW,300,2.0,3.0,82,0.00,,,0.03,Wunderground v.1.15,2013-06-08 17:55:00,
2013-06-08 14:00:00,61.4,55.9,29.94,WNW,302,2.0,4.0,82,0.00,,,0.03,Wunderground v.1.15,2013-06-08 18:00:00,
2013-06-08 14:05:00,61.7,56.1,29.93,WNW,286,3.0,10.0,82,0.00,,,0.03,Wunderground v.1.15,2013-06-08 18:05:00,
2013-06-08 14:10:00,62.6,57.0,29.94,WNW,289,3.0,3.0,82,0.00,,,0.03,Wunderground v.1.15,2013-06-08 18:10:00,
2013-06-08 14:16:00,62.7,57.1,29.94,WNW,291,4.0,7.0,82,0.00,,,0.03,Wunderground v.1.15,2013-06-08 18:16:00,
2013-06-08 14:21:00,63.0,57.4,29.94,West,276,4.0,6.0,82,0.00,,,0.03,Wunderground v.1.15,2013-06-08 18:21:00,
2013-06-08 14:26:00,63.5,57.6,29.94,WNW,296,5.0,10.0,81,0.00,,,0.03,Wunderground v.1.15,2013-06-08 18:26:00,
2013-06-08 14:32:00,63.8,57.5,29.94,NW,308,6.0,6.0,80,0.00,,,0.03,Wunderground v.1.15,2013-06-08 18:32:00,
2013-06-08 14:37:00,63.9,57.6,29.94,NW,317,4.0,6.0,80,0.00,,,0.03,Wunderground v.1.15,2013-06-08 18:37:00,
2013-06-08 14:42:00,64.2,57.5,29.94,NW,326,3.0,7.0,79,0.00,,,0.03,Wunderground v.1.15,2013-06-08 18:42:00,
2013-06-08 14:48:00,63.8,57.2,29.94,NW,312,4.0,12.0,79,0.00,,,0.03,Wunderground v.1.15,2013-06-08 18:48:00,
2013-06-08 14:53:00,63.7,57.8,29.94,WNW,285,5.0,5.0,81,0.00,,,0.03,Wunderground v.1.15,2013-06-08 18:53:00,
2013-06-08 14:58:00,64.0,57.4,29.95,WNW,288,4.0,10.0,79,0.00,,,0.03,Wunderground v.1.15,2013-06-08 18:58:00,
2013-06-08 15:04:00,63.9,57.3,29.95,NW,312,4.0,12.0,79,0.00,,,0.03,Wunderground v.1.15,2013-06-08 19:04:00,
2013-06-08 15:10:00,63.4,56.8,29.95,West,262,4.0,9.0,79,0.00,,,0.03,Wunderground v.1.15,2013-06-08 19:10:00,
2013-06-08 15:16:00,62.7,56.1,29.95,West,267,6.0,11.0,79,0.00,,,0.03,Wunderground v.1.15,2013-06-08 19:16:00,
2013-06-08 15:21:00,62.3,56.0,29.95,West,275,6.0,6.0,80,0.00,,,0.03,Wunderground v.1.15,2013-06-08 19:21:00,
2013-06-08 15:27:00,62.6,56.3,29.95,West,276,5.0,9.0,80,0.00,,,0.03,Wunderground v.1.15,2013-06-08 19:27:00,
2013-06-08 15:32:00,62.7,56.4,29.95,West,263,5.0,11.0,80,0.00,,,0.03,Wunderground v.1.15,2013-06-08 19:32:00,
2013-06-08 15:38:00,62.4,56.1,29.96,WNW,290,5.0,11.0,80,0.00,,,0.03,Wunderground v.1.15,2013-06-08 19:38:00,
2013-06-08 15:43:00,62.4,56.1,29.96,WSW,237,5.0,5.0,80,0.00,,,0.03,Wunderground v.1.15,2013-06-08 19:43:00,
2013-06-08 15:49:00,62.1,55.9,29.96,West,280,5.0,6.0,80,0.00,,,0.03,Wunderground v.1.15,2013-06-08 19:49:00,
2013-06-08 15:55:00,61.6,55.4,29.96,West,276,5.0,13.0,80,0.00,,,0.03,Wunderground v.1.15,2013-06-08 19:55:00,
2013-06-08 16:00:00,61.6,55.7,29.96,West,273,5.0,7.0,81,0.00,,,0.03,Wunderground v.1.15,2013-06-08 20:00:00,
2013-06-08 16:06:00,62.3,56.4,29.96,NW,309,5.0,10.0,81,0.00,,,0.03,Wunderground v.1.15,2013-06-08 20:06:00,
2013-06-08 16:11:00,62.5,56.2,29.96,WNW,284,5.0,5.0,80,0.00,,,0.03,Wunderground v.1.15,2013-06-08 20:11:00,
2013-06-08 16:16:00,62.5,56.2,29.96,West,272,5.0,10.0,80,0.00,,,0.03,Wunderground v.1.15,2013-06-08 20:16:00,
2013-06-08 16:22:00,62.5,56.2,29.97,West,275,5.0,5.0,80,0.00,,,0.03,Wunderground v.1.15,2013-06-08 20:22:00,
2013-06-08 16:27:00,62.4,55.8,29.97,WNW,298,4.0,10.0,79,0.00,,,0.03,Wunderground v.1.15,2013-06-08 20:27:00,
2013-06-08 16:32:00,62.3,56.0,29.97,WNW,290,4.0,7.0,80,0.00,,,0.03,Wunderground v.1.15,2013-06-08 20:32:00,
2013-06-08 16:38:00,62.2,55.6,29.97,West,281,4.0,9.0,79,0.00,,,0.03,Wunderground v.1.15,2013-06-08 20:38:00,
2013-06-08 16:43:00,62.1,55.5,29.98,West,280,3.0,7.0,79,0.00,,,0.03,Wunderground v.1.15,2013-06-08 20:43:00,
2013-06-08 16:48:00,61.8,55.2,29.98,West,260,4.0,7.0,79,0.00,,,0.03,Wunderground v.1.15,2013-06-08 20:48:00,
2013-06-08 16:54:00,61.6,55.4,29.98,WNW,289,4.0,5.0,80,0.00,,,0.03,Wunderground v.1.15,2013-06-08 20:54:00,
2013-06-08 16:59:00,61.7,55.5,29.99,WNW,288,3.0,5.0,80,0.00,,,0.03,Wunderground v.1.15,2013-06-08 20:59:00,
2013-06-08 17:05:00,61.8,55.6,29.99,WSW,242,2.0,7.0,80,0.00,,,0.03,Wunderground v.1.15,2013-06-08 21:05:00,
2013-06-08 17:11:00,61.8,55.6,29.99,West,266,2.0,4.0,80,0.00,,,0.03,Wunderground v.1.15,2013-06-08 21:11:00,
2013-06-08 17:16:00,61.8,55.6,29.99,West,264,2.0,4.0,80,0.00,,,0.03,Wunderground v.1.15,2013-06-08 21:16:00,
2013-06-08 17:21:00,61.8,55.6,29.99,NW,315,2.0,4.0,80,0.00,,,0.03,Wunderground v.1.15,2013-06-08 21:21:00,
2013-06-08 17:27:00,61.8,55.6,29.99,West,271,3.0,4.0,80,0.00,,,0.03,Wunderground v.1.15,2013-06-08 21:27:00,
2013-06-08 17:32:00,62.0,55.8,29.99,West,274,3.0,4.0,80,0.00,,,0.03,Wunderground v.1.15,2013-06-08 21:32:00,
2013-06-08 17:37:00,62.2,56.0,29.99,West,272,3.0,6.0,80,0.00,,,0.03,Wunderground v.1.15,2013-06-08 21:37:00,
2013-06-08 17:43:00,62.4,56.1,29.99,WNW,295,2.0,3.0,80,0.00,,,0.03,Wunderground v.1.15,2013-06-08 21:43:00,
2013-06-08 17:49:00,62.3,55.7,29.99,West,267,2.0,4.0,79,0.00,,,0.03,Wunderground v.1.15,2013-06-08 21:49:00,
2013-06-08 17:54:00,62.1,55.5,29.99,WSW,254,2.0,4.0,79,0.00,,,0.03,Wunderground v.1.15,2013-06-08 21:54:00,
2013-06-08 17:59:00,62.2,56.0,29.99,West,264,2.0,5.0,80,0.00,,,0.03,Wunderground v.1.15,2013-06-08 21:59:00,
2013-06-08 18:05:00,62.3,55.7,29.99,NW,313,2.0,5.0,79,0.00,,,0.03,Wunderground v.1.15,2013-06-08 22:05:00,
2013-06-08 18:11:00,62.3,55.7,29.99,West,278,2.0,3.0,79,0.00,,,0.03,Wunderground v.1.15,2013-06-08 22:11:00,
2013-06-08 18:17:00,62.3,55.7,30.00,WNW,283,2.0,4.0,79,0.00,,,0.03,Wunderground v.1.15,2013-06-08 22:17:00,
2013-06-08 18:22:00,62.1,55.5,29.99,West,273,2.0,3.0,79,0.00,,,0.03,Wunderground v.1.15,2013-06-08 22:22:00,
2013-06-08 18:27:00,61.9,55.3,29.99,WNW,290,2.0,3.0,79,0.00,,,0.03,Wunderground v.1.15,2013-06-08 22:27:00,
2013-06-08 18:33:00,61.8,55.2,30.00,NNW,331,2.0,4.0,79,0.00,,,0.03,Wunderground v.1.15,2013-06-08 22:33:00,
2013-06-08 18:38:00,61.8,55.2,30.00,WNW,288,1.0,4.0,79,0.00,,,0.03,Wunderground v.1.15,2013-06-08 22:38:00,
2013-06-08 18:44:00,61.8,55.6,30.00,WNW,284,1.0,3.0,80,0.00,,,0.03,Wunderground v.1.15,2013-06-08 22:44:00,
2013-06-08 18:49:00,61.7,55.1,30.00,West,278,1.0,3.0,79,0.00,,,0.03,Wunderground v.1.15,2013-06-08 22:49:00,
2013-06-08 18:54:00,61.6,55.4,30.00,West,277,1.0,3.0,80,0.00,,,0.03,Wunderground v.1.15,2013-06-08 22:54:00,
2013-06-08 19:00:00,61.6,55.4,30.00,West,277,1.0,1.0,80,0.00,,,0.03,Wunderground v.1.15,2013-06-08 23:00:00,
2013-06-08 19:05:00,61.6,55.4,30.00,West,277,1.0,2.0,80,0.00,,,0.03,Wunderground v.1.15,2013-06-08 23:05:00,
2013-06-08 19:10:00,61.6,55.4,30.00,West,277,0.0,3.0,80,0.00,,,0.03,Wunderground v.1.15,2013-06-08 23:10:00,
2013-06-08 19:16:00,61.5,55.3,30.00,West,277,1.0,3.0,80,0.00,,,0.03,Wunderground v.1.15,2013-06-08 23:16:00,
2013-06-08 19:21:00,61.4,55.2,30.00,West,277,1.0,1.0,80,0.00,,,0.03,Wunderground v.1.15,2013-06-08 23:21:00,
2013-06-08 19:26:00,61.4,55.2,30.00,West,277,0.0,1.0,80,0.00,,,0.03,Wunderground v.1.15,2013-06-08 23:26:00,
2013-06-08 19:32:00,61.3,55.1,30.00,West,277,0.0,2.0,80,0.00,,,0.03,Wunderground v.1.15,2013-06-08 23:32:00,
2013-06-08 19:37:00,61.2,55.3,30.00,West,277,1.0,2.0,81,0.00,,,0.03,Wunderground v.1.15,2013-06-08 23:37:00,
2013-06-08 19:42:00,61.1,55.2,30.00,West,277,0.0,1.0,81,0.00,,,0.03,Wunderground v.1.15,2013-06-08 23:42:00,
2013-06-08 19:47:00,61.1,55.2,30.00,West,277,0.0,1.0,81,0.00,,,0.03,Wunderground v.1.15,2013-06-08 23:47:00,
2013-06-08 19:53:00,61.0,55.1,30.00,West,277,0.0,2.0,81,0.00,,,0.03,Wunderground v.1.15,2013-06-08 23:53:00,
2013-06-08 19:59:00,60.9,55.0,30.01,West,277,0.0,2.0,81,0.00,,,0.03,Wunderground v.1.15,2013-06-08 23:59:00,
2013-06-08 20:05:00,60.8,55.3,30.01,West,277,0.0,1.0,82,0.00,,,0.03,Wunderground v.1.15,2013-06-09 00:05:00,
2013-06-08 20:11:00,60.7,55.2,30.01,West,277,0.0,0.0,82,0.00,,,0.03,Wunderground v.1.15,2013-06-09 00:11:00,
2013-06-08 20:16:00,60.6,55.1,30.01,West,277,0.0,2.0,82,0.00,,,0.03,Wunderground v.1.15,2013-06-09 00:16:00,
2013-06-08 20:22:00,60.5,55.0,30.02,West,277,0.0,0.0,82,0.00,,,0.03,Wunderground v.1.15,2013-06-09 00:22:00,
2013-06-08 20:27:00,60.4,54.9,30.02,West,277,0.0,1.0,82,0.00,,,0.03,Wunderground v.1.15,2013-06-09 00:27:00,
2013-06-08 20:32:00,60.2,54.7,30.02,West,277,0.0,2.0,82,0.00,,,0.03,Wunderground v.1.15,2013-06-09 00:32:00,
2013-06-08 20:38:00,60.1,54.6,30.02,West,277,0.0,2.0,82,0.00,,,0.03,Wunderground v.1.15,2013-06-09 00:38:00,
2013-06-08 20:44:00,60.0,54.5,30.02,West,277,0.0,1.0,82,0.00,,,0.03,Wunderground v.1.15,2013-06-09 00:44:00,
2013-06-08 20:50:00,59.9,54.4,30.02,West,277,0.0,0.0,82,0.00,,,0.03,Wunderground v.1.15,2013-06-09 00:50:00,
2013-06-08 20:55:00,59.8,54.3,30.02,West,277,0.0,0.0,82,0.00,,,0.03,Wunderground v.1.15,2013-06-09 00:55:00,
2013-06-08 21:00:00,59.7,54.2,30.02,West,277,0.0,0.0,82,0.00,,,0.03,Wunderground v.1.15,2013-06-09 01:00:00,
2013-06-08 21:06:00,59.6,54.1,30.02,West,277,0.0,0.0,82,0.00,,,0.03,Wunderground v.1.15,2013-06-09 01:06:00,
2013-06-08 21:11:00,59.6,53.8,30.02,West,277,0.0,0.0,81,0.00,,,0.03,Wunderground v.1.15,2013-06-09 01:11:00,
2013-06-08 21:17:00,59.4,53.6,30.03,West,277,0.0,0.0,81,0.00,,,0.03,Wunderground v.1.15,2013-06-09 01:17:00,
2013-06-08 21:22:00,59.4,53.6,30.03,West,277,0.0,1.0,81,0.00,,,0.03,Wunderground v.1.15,2013-06-09 01:22:00,
2013-06-08 21:28:00,59.3,53.5,30.04,West,277,0.0,2.0,81,0.00,,,0.03,Wunderground v.1.15,2013-06-09 01:28:00,
2013-06-08 21:34:00,59.3,53.5,30.04,West,277,1.0,1.0,81,0.00,,,0.03,Wunderground v.1.15,2013-06-09 01:34:00,
2013-06-08 21:39:00,59.2,53.4,30.05,West,277,0.0,2.0,81,0.00,,,0.03,Wunderground v.1.15,2013-06-09 01:39:00,
2013-06-08 21:44:00,59.2,53.4,30.05,West,277,0.0,1.0,81,0.00,,,0.03,Wunderground v.1.15,2013-06-09 01:44:00,
2013-06-08 21:49:00,59.2,53.4,30.05,West,277,0.0,0.0,81,0.00,,,0.03,Wunderground v.1.15,2013-06-09 01:49:00,
2013-06-08 21:55:00,59.2,53.4,30.05,West,277,0.0,0.0,81,0.00,,,0.03,Wunderground v.1.15,2013-06-09 01:55:00,
2013-06-08 22:00:00,59.2,53.4,30.05,West,277,0.0,0.0,81,0.00,,,0.03,Wunderground v.1.15,2013-06-09 02:00:00,
2013-06-08 22:05:00,59.1,53.3,30.05,West,277,0.0,2.0,81,0.00,,,0.03,Wunderground v.1.15,2013-06-09 02:05:00,
2013-06-08 22:11:00,59.1,53.3,30.05,West,277,0.0,0.0,81,0.00,,,0.03,Wunderground v.1.15,2013-06-09 02:11:00,
2013-06-08 22:17:00,59.1,53.3,30.05,West,277,0.0,0.0,81,0.00,,,0.03,Wunderground v.1.15,2013-06-09 02:17:00,
2013-06-08 22:22:00,59.1,53.3,30.06,West,277,0.0,0.0,81,0.00,,,0.03,Wunderground v.1.15,2013-06-09 02:22:00,
2013-06-08 22:28:00,59.1,53.3,30.06,West,277,0.0,0.0,81,0.00,,,0.03,Wunderground v.1.15,2013-06-09 02:28:00,
2013-06-08 22:34:00,59.0,53.2,30.06,West,277,0.0,0.0,81,0.00,,,0.03,Wunderground v.1.15,2013-06-09 02:34:00,
2013-06-08 22:39:00,58.9,53.1,30.06,West,277,0.0,0.0,81,0.00,,,0.03,Wunderground v.1.15,2013-06-09 02:39:00,
2013-06-08 22:45:00,58.9,52.7,30.06,West,277,0.0,0.0,80,0.00,,,0.03,Wunderground v.1.15,2013-06-09 02:45:00,
2013-06-08 22:50:00,58.9,52.7,30.06,West,277,0.0,0.0,80,0.00,,,0.03,Wunderground v.1.15,2013-06-09 02:50:00,
2013-06-08 22:56:00,58.8,52.6,30.06,West,277,0.0,0.0,80,0.00,,,0.03,Wunderground v.1.15,2013-06-09 02:56:00,
2013-06-08 23:01:00,58.7,52.5,30.06,West,277,0.0,0.0,80,0.00,,,0.03,Wunderground v.1.15,2013-06-09 03:01:00,
2013-06-08 23:06:00,58.6,52.4,30.06,West,277,0.0,0.0,80,0.00,,,0.03,Wunderground v.1.15,2013-06-09 03:06:00,
2013-06-08 23:12:00,58.5,52.4,30.06,West,277,0.0,0.0,80,0.00,,,0.03,Wunderground v.1.15,2013-06-09 03:12:00,
2013-06-08 23:17:00,58.4,52.3,30.06,West,277,0.0,0.0,80,0.00,,,0.03,Wunderground v.1.15,2013-06-09 03:17:00,
2013-06-08 23:23:00,58.4,52.3,30.06,West,277,0.0,0.0,80,0.00,,,0.03,Wunderground v.1.15,2013-06-09 03:23:00,
2013-06-08 23:28:00,58.4,51.9,30.06,West,277,0.0,0.0,79,0.00,,,0.03,Wunderground v.1.15,2013-06-09 03:28:00,
2013-06-08 23:33:00,58.4,51.9,30.06,West,277,0.0,0.0,79,0.00,,,0.03,Wunderground v.1.15,2013-06-09 03:33:00,
2013-06-08 23:39:00,58.4,51.9,30.06,West,277,0.0,0.0,79,0.00,,,0.03,Wunderground v.1.15,2013-06-09 03:39:00,
2013-06-08 23:44:00,58.4,51.9,30.06,West,277,0.0,0.0,79,0.00,,,0.03,Wunderground v.1.15,2013-06-09 03:44:00,
2013-06-08 23:50:00,58.3,51.8,30.06,West,277,0.0,0.0,79,0.00,,,0.03,Wunderground v.1.15,2013-06-09 03:50:00,
2013-06-08 23:55:00,58.2,51.7,30.06,West,277,0.0,0.0,79,0.00,,,0.03,Wunderground v.1.15,2013-06-09 03:55:00,